Year,Month,Day,Hour,Minute,Value (Times are PST for insolation in W/m^2)
2018,09,30,00,00,0.00
2018,09,30,00,01,0.00
2018,09,30,00,02,0.00
2018,09,30,00,03,0.00
2018,09,30,00,04,0.00
2018,09,30,00,05,0.00
2018,09,30,00,06,0.00
2018,09,30,00,07,0.00
2018,09,30,00,08,0.00
2018,09,30,00,09,0.00
2018,09,30,00,10,0.00
2018,09,30,00,11,0.00
2018,09,30,00,12,0.00
2018,09,30,00,13,0.00
2018,09,30,00,14,0.00
2018,09,30,00,15,0.00
2018,09,30,00,16,0.00
2018,09,30,00,17,0.00
2018,09,30,00,18,0.00
2018,09,30,00,19,0.00
2018,09,30,00,20,0.00
2018,09,30,00,21,0.00
2018,09,30,00,22,0.00
2018,09,30,00,23,0.00
2018,09,30,00,24,0.00
2018,09,30,00,25,0.00
2018,09,30,00,26,0.00
2018,09,30,00,27,0.00
2018,09,30,00,28,0.00
2018,09,30,00,29,0.00
2018,09,30,00,30,0.00
2018,09,30,00,31,0.00
2018,09,30,00,32,0.00
2018,09,30,00,33,0.00
2018,09,30,00,34,0.00
2018,09,30,00,35,0.00
2018,09,30,00,36,0.00
2018,09,30,00,37,0.00
2018,09,30,00,38,0.00
2018,09,30,00,39,0.00
2018,09,30,00,40,0.00
2018,09,30,00,41,0.00
2018,09,30,00,42,0.00
2018,09,30,00,43,0.00
2018,09,30,00,44,0.00
2018,09,30,00,45,0.00
2018,09,30,00,46,0.00
2018,09,30,00,47,0.00
2018,09,30,00,48,0.00
2018,09,30,00,49,0.00
2018,09,30,00,50,0.00
2018,09,30,00,51,0.00
2018,09,30,00,52,0.00
2018,09,30,00,53,0.00
2018,09,30,00,54,0.00
2018,09,30,00,55,0.00
2018,09,30,00,56,0.00
2018,09,30,00,57,0.00
2018,09,30,00,58,0.00
2018,09,30,00,59,0.00
2018,09,30,01,00,0.00
2018,09,30,01,01,0.00
2018,09,30,01,02,0.00
2018,09,30,01,03,0.00
2018,09,30,01,04,0.00
2018,09,30,01,05,0.00
2018,09,30,01,06,0.00
2018,09,30,01,07,0.00
2018,09,30,01,08,0.00
2018,09,30,01,09,0.00
2018,09,30,01,10,0.00
2018,09,30,01,11,0.00
2018,09,30,01,12,0.00
2018,09,30,01,13,0.00
2018,09,30,01,14,0.00
2018,09,30,01,15,0.00
2018,09,30,01,16,0.00
2018,09,30,01,17,0.00
2018,09,30,01,18,0.00
2018,09,30,01,19,0.00
2018,09,30,01,20,0.00
2018,09,30,01,21,0.00
2018,09,30,01,22,0.00
2018,09,30,01,23,0.00
2018,09,30,01,24,0.00
2018,09,30,01,25,0.00
2018,09,30,01,26,0.00
2018,09,30,01,27,0.00
2018,09,30,01,28,0.00
2018,09,30,01,29,0.00
2018,09,30,01,30,0.00
2018,09,30,01,31,0.00
2018,09,30,01,32,0.00
2018,09,30,01,33,0.00
2018,09,30,01,34,0.00
2018,09,30,01,35,0.00
2018,09,30,01,36,0.00
2018,09,30,01,37,0.00
2018,09,30,01,38,0.00
2018,09,30,01,39,0.00
2018,09,30,01,40,0.00
2018,09,30,01,41,0.00
2018,09,30,01,42,0.00
2018,09,30,01,43,0.00
2018,09,30,01,44,0.00
2018,09,30,01,45,0.00
2018,09,30,01,46,0.00
2018,09,30,01,47,0.00
2018,09,30,01,48,0.00
2018,09,30,01,49,0.00
2018,09,30,01,50,0.00
2018,09,30,01,51,0.00
2018,09,30,01,52,0.00
2018,09,30,01,53,0.00
2018,09,30,01,54,0.00
2018,09,30,01,55,0.00
2018,09,30,01,56,0.00
2018,09,30,01,57,0.00
2018,09,30,01,58,0.00
2018,09,30,01,59,0.00
2018,09,30,02,00,0.00
2018,09,30,02,01,0.00
2018,09,30,02,02,0.00
2018,09,30,02,03,0.00
2018,09,30,02,04,0.00
2018,09,30,02,05,0.00
2018,09,30,02,06,0.00
2018,09,30,02,07,0.00
2018,09,30,02,08,0.00
2018,09,30,02,09,0.00
2018,09,30,02,10,0.00
2018,09,30,02,11,0.00
2018,09,30,02,12,0.00
2018,09,30,02,13,0.00
2018,09,30,02,14,0.00
2018,09,30,02,15,0.00
2018,09,30,02,16,0.00
2018,09,30,02,17,0.00
2018,09,30,02,18,0.00
2018,09,30,02,19,0.00
2018,09,30,02,20,0.00
2018,09,30,02,21,0.00
2018,09,30,02,22,0.00
2018,09,30,02,23,0.00
2018,09,30,02,24,0.00
2018,09,30,02,25,0.00
2018,09,30,02,26,0.00
2018,09,30,02,27,0.00
2018,09,30,02,28,0.00
2018,09,30,02,29,0.00
2018,09,30,02,30,0.00
2018,09,30,02,31,0.00
2018,09,30,02,32,0.00
2018,09,30,02,33,0.00
2018,09,30,02,34,0.00
2018,09,30,02,35,0.00
2018,09,30,02,36,0.00
2018,09,30,02,37,0.00
2018,09,30,02,38,0.00
2018,09,30,02,39,0.00
2018,09,30,02,40,0.00
2018,09,30,02,41,0.00
2018,09,30,02,42,0.00
2018,09,30,02,43,0.00
2018,09,30,02,44,0.00
2018,09,30,02,45,0.00
2018,09,30,02,46,0.00
2018,09,30,02,47,0.00
2018,09,30,02,48,0.00
2018,09,30,02,49,0.00
2018,09,30,02,50,0.00
2018,09,30,02,51,0.00
2018,09,30,02,52,0.00
2018,09,30,02,53,0.00
2018,09,30,02,54,0.00
2018,09,30,02,55,0.00
2018,09,30,02,56,0.00
2018,09,30,02,57,0.00
2018,09,30,02,58,0.00
2018,09,30,02,59,0.00
2018,09,30,03,00,0.00
2018,09,30,03,01,0.00
2018,09,30,03,02,0.00
2018,09,30,03,03,0.00
2018,09,30,03,04,0.00
2018,09,30,03,05,0.00
2018,09,30,03,06,0.00
2018,09,30,03,07,0.00
2018,09,30,03,08,0.00
2018,09,30,03,09,0.00
2018,09,30,03,10,0.00
2018,09,30,03,11,0.00
2018,09,30,03,12,0.00
2018,09,30,03,13,0.00
2018,09,30,03,14,0.00
2018,09,30,03,15,0.00
2018,09,30,03,16,0.00
2018,09,30,03,17,0.00
2018,09,30,03,18,0.00
2018,09,30,03,19,0.00
2018,09,30,03,20,0.00
2018,09,30,03,21,0.00
2018,09,30,03,22,0.00
2018,09,30,03,23,0.00
2018,09,30,03,24,0.00
2018,09,30,03,25,0.00
2018,09,30,03,26,0.00
2018,09,30,03,27,0.00
2018,09,30,03,28,0.00
2018,09,30,03,29,0.00
2018,09,30,03,30,0.00
2018,09,30,03,31,0.00
2018,09,30,03,32,0.00
2018,09,30,03,33,0.00
2018,09,30,03,34,0.00
2018,09,30,03,35,0.00
2018,09,30,03,36,0.00
2018,09,30,03,37,0.00
2018,09,30,03,38,0.00
2018,09,30,03,39,0.00
2018,09,30,03,40,0.00
2018,09,30,03,41,0.00
2018,09,30,03,42,0.00
2018,09,30,03,43,0.00
2018,09,30,03,44,0.00
2018,09,30,03,45,0.00
2018,09,30,03,46,0.00
2018,09,30,03,47,0.00
2018,09,30,03,48,0.00
2018,09,30,03,49,0.00
2018,09,30,03,50,0.00
2018,09,30,03,51,0.00
2018,09,30,03,52,0.00
2018,09,30,03,53,0.00
2018,09,30,03,54,0.00
2018,09,30,03,55,0.00
2018,09,30,03,56,0.00
2018,09,30,03,57,0.00
2018,09,30,03,58,0.00
2018,09,30,03,59,0.00
2018,09,30,04,00,0.00
2018,09,30,04,01,0.00
2018,09,30,04,02,0.00
2018,09,30,04,03,0.00
2018,09,30,04,04,0.00
2018,09,30,04,05,0.00
2018,09,30,04,06,0.00
2018,09,30,04,07,0.00
2018,09,30,04,08,0.00
2018,09,30,04,09,0.00
2018,09,30,04,10,0.00
2018,09,30,04,11,0.00
2018,09,30,04,12,0.00
2018,09,30,04,13,0.00
2018,09,30,04,14,0.00
2018,09,30,04,15,0.00
2018,09,30,04,16,0.00
2018,09,30,04,17,0.00
2018,09,30,04,18,0.00
2018,09,30,04,19,0.00
2018,09,30,04,20,0.00
2018,09,30,04,21,0.00
2018,09,30,04,22,0.00
2018,09,30,04,23,0.00
2018,09,30,04,24,0.00
2018,09,30,04,25,0.00
2018,09,30,04,26,0.00
2018,09,30,04,27,0.00
2018,09,30,04,28,0.00
2018,09,30,04,29,0.00
2018,09,30,04,30,0.00
2018,09,30,04,31,0.00
2018,09,30,04,32,0.00
2018,09,30,04,33,0.00
2018,09,30,04,34,0.00
2018,09,30,04,35,0.00
2018,09,30,04,36,0.00
2018,09,30,04,37,0.00
2018,09,30,04,38,0.00
2018,09,30,04,39,0.00
2018,09,30,04,40,0.00
2018,09,30,04,41,0.00
2018,09,30,04,42,0.00
2018,09,30,04,43,0.00
2018,09,30,04,44,0.00
2018,09,30,04,45,0.00
2018,09,30,04,46,0.00
2018,09,30,04,47,0.00
2018,09,30,04,48,0.00
2018,09,30,04,49,0.00
2018,09,30,04,50,0.00
2018,09,30,04,51,0.00
2018,09,30,04,52,0.00
2018,09,30,04,53,0.00
2018,09,30,04,54,0.00
2018,09,30,04,55,0.00
2018,09,30,04,56,0.00
2018,09,30,04,57,0.00
2018,09,30,04,58,0.00
2018,09,30,04,59,0.00
2018,09,30,05,00,0.00
2018,09,30,05,01,0.00
2018,09,30,05,02,0.00
2018,09,30,05,03,0.00
2018,09,30,05,04,0.00
2018,09,30,05,05,0.00
2018,09,30,05,06,0.00
2018,09,30,05,07,0.00
2018,09,30,05,08,0.00
2018,09,30,05,09,0.00
2018,09,30,05,10,0.00
2018,09,30,05,11,0.00
2018,09,30,05,12,0.00
2018,09,30,05,13,0.00
2018,09,30,05,14,0.00
2018,09,30,05,15,0.00
2018,09,30,05,16,0.00
2018,09,30,05,17,0.00
2018,09,30,05,18,0.00
2018,09,30,05,19,0.00
2018,09,30,05,20,0.00
2018,09,30,05,21,0.00
2018,09,30,05,22,0.00
2018,09,30,05,23,0.00
2018,09,30,05,24,0.00
2018,09,30,05,25,0.00
2018,09,30,05,26,0.00
2018,09,30,05,27,0.00
2018,09,30,05,28,0.00
2018,09,30,05,29,0.00
2018,09,30,05,30,0.00
2018,09,30,05,31,0.00
2018,09,30,05,32,0.00
2018,09,30,05,33,0.00
2018,09,30,05,34,0.00
2018,09,30,05,35,0.00
2018,09,30,05,36,0.00
2018,09,30,05,37,0.00
2018,09,30,05,38,0.00
2018,09,30,05,39,0.00
2018,09,30,05,40,0.00
2018,09,30,05,41,0.00
2018,09,30,05,42,0.00
2018,09,30,05,43,0.00
2018,09,30,05,44,0.00
2018,09,30,05,45,0.00
2018,09,30,05,46,0.00
2018,09,30,05,47,0.00
2018,09,30,05,48,0.00
2018,09,30,05,49,0.00
2018,09,30,05,50,0.00
2018,09,30,05,51,0.00
2018,09,30,05,52,0.00
2018,09,30,05,53,0.00
2018,09,30,05,54,0.00
2018,09,30,05,55,0.00
2018,09,30,05,56,0.00
2018,09,30,05,57,0.00
2018,09,30,05,58,0.00
2018,09,30,05,59,0.00
2018,09,30,06,00,0.00
2018,09,30,06,01,0.00
2018,09,30,06,02,0.00
2018,09,30,06,03,0.00
2018,09,30,06,04,0.00
2018,09,30,06,05,0.00
2018,09,30,06,06,0.00
2018,09,30,06,07,0.00
2018,09,30,06,08,0.00
2018,09,30,06,09,0.00
2018,09,30,06,10,0.00
2018,09,30,06,11,0.00
2018,09,30,06,12,0.00
2018,09,30,06,13,0.00
2018,09,30,06,14,0.00
2018,09,30,06,15,0.00
2018,09,30,06,16,0.00
2018,09,30,06,17,0.00
2018,09,30,06,18,0.00
2018,09,30,06,19,0.00
2018,09,30,06,20,0.00
2018,09,30,06,21,0.00
2018,09,30,06,22,0.00
2018,09,30,06,23,0.00
2018,09,30,06,24,0.00
2018,09,30,06,25,0.00
2018,09,30,06,26,0.00
2018,09,30,06,27,0.00
2018,09,30,06,28,0.00
2018,09,30,06,29,0.00
2018,09,30,06,30,0.00
2018,09,30,06,31,0.00
2018,09,30,06,32,0.00
2018,09,30,06,33,0.00
2018,09,30,06,34,0.00
2018,09,30,06,35,0.00
2018,09,30,06,36,0.00
2018,09,30,06,37,0.00
2018,09,30,06,38,0.00
2018,09,30,06,39,0.00
2018,09,30,06,40,0.00
2018,09,30,06,41,0.00
2018,09,30,06,42,0.00
2018,09,30,06,43,0.00
2018,09,30,06,44,0.00
2018,09,30,06,45,0.00
2018,09,30,06,46,0.00
2018,09,30,06,47,0.00
2018,09,30,06,48,0.00
2018,09,30,06,49,0.00
2018,09,30,06,50,0.00
2018,09,30,06,51,0.00
2018,09,30,06,52,0.00
2018,09,30,06,53,0.00
2018,09,30,06,54,0.00
2018,09,30,06,55,0.00
2018,09,30,06,56,0.00
2018,09,30,06,57,0.00
2018,09,30,06,58,0.00
2018,09,30,06,59,0.00
2018,09,30,07,00,0.00
2018,09,30,07,01,0.00
2018,09,30,07,02,0.00
2018,09,30,07,03,0.00
2018,09,30,07,04,0.00
2018,09,30,07,05,0.00
2018,09,30,07,06,0.00
2018,09,30,07,07,0.00
2018,09,30,07,08,0.00
2018,09,30,07,09,0.00
2018,09,30,07,10,0.00
2018,09,30,07,11,0.00
2018,09,30,07,12,0.00
2018,09,30,07,13,0.00
2018,09,30,07,14,0.00
2018,09,30,07,15,0.00
2018,09,30,07,16,0.00
2018,09,30,07,17,0.00
2018,09,30,07,18,0.00
2018,09,30,07,19,0.00
2018,09,30,07,20,0.00
2018,09,30,07,21,0.00
2018,09,30,07,22,0.00
2018,09,30,07,23,0.00
2018,09,30,07,24,0.00
2018,09,30,07,25,0.00
2018,09,30,07,26,0.00
2018,09,30,07,27,0.00
2018,09,30,07,28,0.00
2018,09,30,07,29,0.00
2018,09,30,07,30,0.00
2018,09,30,07,31,0.00
2018,09,30,07,32,0.00
2018,09,30,07,33,0.00
2018,09,30,07,34,0.00
2018,09,30,07,35,0.00
2018,09,30,07,36,0.00
2018,09,30,07,37,0.00
2018,09,30,07,38,0.00
2018,09,30,07,39,0.00
2018,09,30,07,40,0.00
2018,09,30,07,41,0.00
2018,09,30,07,42,0.00
2018,09,30,07,43,0.00
2018,09,30,07,44,0.00
2018,09,30,07,45,0.00
2018,09,30,07,46,0.00
2018,09,30,07,47,0.00
2018,09,30,07,48,0.00
2018,09,30,07,49,0.00
2018,09,30,07,50,0.00
2018,09,30,07,51,0.00
2018,09,30,07,52,0.00
2018,09,30,07,53,0.00
2018,09,30,07,54,0.00
2018,09,30,07,55,0.00
2018,09,30,07,56,0.00
2018,09,30,07,57,0.00
2018,09,30,07,58,0.00
2018,09,30,07,59,4.10
2018,09,30,08,00,5.00
2018,09,30,08,01,5.00
2018,09,30,08,02,5.00
2018,09,30,08,03,5.00
2018,09,30,08,04,5.00
2018,09,30,08,05,5.00
2018,09,30,08,06,5.00
2018,09,30,08,07,5.00
2018,09,30,08,08,5.00
2018,09,30,08,09,5.00
2018,09,30,08,10,5.00
2018,09,30,08,11,5.00
2018,09,30,08,12,6.40
2018,09,30,08,13,7.00
2018,09,30,08,14,7.00
2018,09,30,08,15,7.00
2018,09,30,08,16,7.00
2018,09,30,08,17,7.90
2018,09,30,08,18,9.00
2018,09,30,08,19,9.00
2018,09,30,08,20,9.00
2018,09,30,08,21,9.00
2018,09,30,08,22,9.00
2018,09,30,08,23,9.00
2018,09,30,08,24,9.00
2018,09,30,08,25,9.00
2018,09,30,08,26,10.40
2018,09,30,08,27,9.40
2018,09,30,08,28,9.00
2018,09,30,08,29,9.00
2018,09,30,08,30,9.00
2018,09,30,08,31,8.10
2018,09,30,08,32,7.00
2018,09,30,08,33,7.00
2018,09,30,08,34,7.00
2018,09,30,08,35,8.90
2018,09,30,08,36,9.00
2018,09,30,08,37,9.00
2018,09,30,08,38,9.00
2018,09,30,08,39,7.90
2018,09,30,08,40,7.00
2018,09,30,08,41,7.00
2018,09,30,08,42,8.90
2018,09,30,08,43,9.40
2018,09,30,08,44,11.00
2018,09,30,08,45,11.00
2018,09,30,08,46,9.80
2018,09,30,08,47,9.00
2018,09,30,08,48,9.00
2018,09,30,08,49,9.00
2018,09,30,08,50,9.00
2018,09,30,08,51,9.00
2018,09,30,08,52,9.00
2018,09,30,08,53,9.00
2018,09,30,08,54,10.40
2018,09,30,08,55,11.00
2018,09,30,08,56,11.00
2018,09,30,08,57,11.20
2018,09,30,08,58,12.00
2018,09,30,08,59,12.90
2018,09,30,09,00,12.90
2018,09,30,09,01,11.30
2018,09,30,09,02,9.30
2018,09,30,09,03,9.00
2018,09,30,09,04,9.00
2018,09,30,09,05,9.60
2018,09,30,09,06,11.40
2018,09,30,09,07,13.10
2018,09,30,09,08,14.00
2018,09,30,09,09,14.00
2018,09,30,09,10,13.90
2018,09,30,09,11,11.80
2018,09,30,09,12,11.00
2018,09,30,09,13,11.00
2018,09,30,09,14,11.60
2018,09,30,09,15,12.00
2018,09,30,09,16,13.70
2018,09,30,09,17,14.00
2018,09,30,09,18,14.40
2018,09,30,09,19,16.00
2018,09,30,09,20,16.00
2018,09,30,09,21,16.00
2018,09,30,09,22,17.40
2018,09,30,09,23,18.00
2018,09,30,09,24,18.00
2018,09,30,09,25,18.00
2018,09,30,09,26,18.00
2018,09,30,09,27,18.40
2018,09,30,09,28,19.00
2018,09,30,09,29,19.00
2018,09,30,09,30,19.00
2018,09,30,09,31,19.00
2018,09,30,09,32,19.00
2018,09,30,09,33,19.00
2018,09,30,09,34,19.00
2018,09,30,09,35,19.00
2018,09,30,09,36,19.00
2018,09,30,09,37,19.00
2018,09,30,09,38,19.00
2018,09,30,09,39,19.00
2018,09,30,09,40,19.00
2018,09,30,09,41,19.00
2018,09,30,09,42,20.10
2018,09,30,09,43,21.00
2018,09,30,09,44,21.00
2018,09,30,09,45,21.10
2018,09,30,09,46,23.30
2018,09,30,09,47,25.30
2018,09,30,09,48,28.60
2018,09,30,09,49,33.70
2018,09,30,09,50,36.40
2018,09,30,09,51,37.00
2018,09,30,09,52,34.90
2018,09,30,09,53,33.00
2018,09,30,09,54,33.00
2018,09,30,09,55,33.90
2018,09,30,09,56,35.00
2018,09,30,09,57,36.40
2018,09,30,09,58,37.00
2018,09,30,09,59,38.90
2018,09,30,10,00,38.70
2018,09,30,10,01,37.00
2018,09,30,10,02,36.10
2018,09,30,10,03,33.90
2018,09,30,10,04,32.30
2018,09,30,10,05,30.30
2018,09,30,10,06,28.10
2018,09,30,10,07,28.40
2018,09,30,10,08,30.00
2018,09,30,10,09,30.90
2018,09,30,10,10,32.00
2018,09,30,10,11,32.00
2018,09,30,10,12,32.00
2018,09,30,10,13,29.90
2018,09,30,10,14,27.60
2018,09,30,10,15,26.00
2018,09,30,10,16,27.80
2018,09,30,10,17,31.80
2018,09,30,10,18,37.30
2018,09,30,10,19,41.40
2018,09,30,10,20,42.00
2018,09,30,10,21,42.00
2018,09,30,10,22,42.00
2018,09,30,10,23,42.00
2018,09,30,10,24,42.00
2018,09,30,10,25,42.00
2018,09,30,10,26,42.00
2018,09,30,10,27,43.90
2018,09,30,10,28,43.60
2018,09,30,10,29,42.00
2018,09,30,10,30,40.70
2018,09,30,10,31,37.90
2018,09,30,10,32,35.60
2018,09,30,10,33,36.60
2018,09,30,10,34,40.30
2018,09,30,10,35,47.80
2018,09,30,10,36,50.30
2018,09,30,10,37,47.60
2018,09,30,10,38,44.90
2018,09,30,10,39,44.00
2018,09,30,10,40,45.70
2018,09,30,10,41,49.00
2018,09,30,10,42,53.00
2018,09,30,10,43,52.40
2018,09,30,10,44,49.20
2018,09,30,10,45,46.40
2018,09,30,10,46,44.60
2018,09,30,10,47,44.00
2018,09,30,10,48,42.10
2018,09,30,10,49,42.00
2018,09,30,10,50,43.30
2018,09,30,10,51,47.30
2018,09,30,10,52,51.30
2018,09,30,10,53,57.80
2018,09,30,10,54,62.50
2018,09,30,10,55,65.10
2018,09,30,10,56,67.50
2018,09,30,10,57,71.20
2018,09,30,10,58,74.00
2018,09,30,10,59,75.10
2018,09,30,11,00,74.60
2018,09,30,11,01,70.00
2018,09,30,11,02,65.10
2018,09,30,11,03,61.60
2018,09,30,11,04,60.60
2018,09,30,11,05,61.10
2018,09,30,11,06,60.00
2018,09,30,11,07,58.60
2018,09,30,11,08,58.00
2018,09,30,11,09,61.90
2018,09,30,11,10,64.20
2018,09,30,11,11,70.60
2018,09,30,11,12,76.20
2018,09,30,11,13,80.20
2018,09,30,11,14,79.60
2018,09,30,11,15,76.60
2018,09,30,11,16,77.30
2018,09,30,11,17,84.00
2018,09,30,11,18,90.20
2018,09,30,11,19,97.10
2018,09,30,11,20,102.20
2018,09,30,11,21,104.00
2018,09,30,11,22,102.30
2018,09,30,11,23,99.70
2018,09,30,11,24,94.30
2018,09,30,11,25,90.10
2018,09,30,11,26,88.00
2018,09,30,11,27,89.10
2018,09,30,11,28,93.40
2018,09,30,11,29,95.00
2018,09,30,11,30,111.10
2018,09,30,11,31,122.20
2018,09,30,11,32,127.00
2018,09,30,11,33,124.40
2018,09,30,11,34,120.40
2018,09,30,11,35,120.00
2018,09,30,11,36,122.50
2018,09,30,11,37,127.10
2018,09,30,11,38,133.40
2018,09,30,11,39,140.00
2018,09,30,11,40,140.70
2018,09,30,11,41,135.10
2018,09,30,11,42,128.60
2018,09,30,11,43,123.70
2018,09,30,11,44,122.80
2018,09,30,11,45,118.90
2018,09,30,11,46,112.40
2018,09,30,11,47,106.90
2018,09,30,11,48,101.80
2018,09,30,11,49,97.90
2018,09,30,11,50,95.40
2018,09,30,11,51,93.10
2018,09,30,11,52,93.00
2018,09,30,11,53,92.30
2018,09,30,11,54,90.50
2018,09,30,11,55,87.80
2018,09,30,11,56,81.20
2018,09,30,11,57,74.90
2018,09,30,11,58,72.00
2018,09,30,11,59,70.40
2018,09,30,12,00,72.60
2018,09,30,12,01,75.30
2018,09,30,12,02,78.10
2018,09,30,12,03,80.40
2018,09,30,12,04,82.70
2018,09,30,12,05,88.00
2018,09,30,12,06,91.40
2018,09,30,12,07,93.60
2018,09,30,12,08,94.10
2018,09,30,12,09,91.30
2018,09,30,12,10,88.60
2018,09,30,12,11,88.00
2018,09,30,12,12,89.90
2018,09,30,12,13,91.80
2018,09,30,12,14,95.70
2018,09,30,12,15,97.00
2018,09,30,12,16,97.00
2018,09,30,12,17,95.60
2018,09,30,12,18,91.70
2018,09,30,12,19,85.70
2018,09,30,12,20,76.00
2018,09,30,12,21,71.00
2018,09,30,12,22,69.00
2018,09,30,12,23,69.00
2018,09,30,12,24,69.00
2018,09,30,12,25,69.80
2018,09,30,12,26,71.90
2018,09,30,12,27,71.60
2018,09,30,12,28,69.70
2018,09,30,12,29,68.10
2018,09,30,12,30,65.80
2018,09,30,12,31,65.00
2018,09,30,12,32,66.60
2018,09,30,12,33,69.90
2018,09,30,12,34,72.40
2018,09,30,12,35,74.60
2018,09,30,12,36,76.40
2018,09,30,12,37,77.00
2018,09,30,12,38,79.80
2018,09,30,12,39,79.30
2018,09,30,12,40,73.80
2018,09,30,12,41,68.30
2018,09,30,12,42,65.00
2018,09,30,12,43,65.00
2018,09,30,12,44,63.90
2018,09,30,12,45,62.30
2018,09,30,12,46,60.30
2018,09,30,12,47,58.10
2018,09,30,12,48,57.60
2018,09,30,12,49,56.00
2018,09,30,12,50,56.00
2018,09,30,12,51,54.90
2018,09,30,12,52,54.00
2018,09,30,12,53,53.20
2018,09,30,12,54,51.00
2018,09,30,12,55,49.00
2018,09,30,12,56,48.40
2018,09,30,12,57,47.00
2018,09,30,12,58,48.20
2018,09,30,12,59,49.00
2018,09,30,13,00,49.00
2018,09,30,13,01,49.00
2018,09,30,13,02,49.00
2018,09,30,13,03,49.60
2018,09,30,13,04,51.90
2018,09,30,13,05,53.60
2018,09,30,13,06,54.00
2018,09,30,13,07,55.60
2018,09,30,13,08,56.00
2018,09,30,13,09,56.00
2018,09,30,13,10,55.30
2018,09,30,13,11,52.70
2018,09,30,13,12,49.90
2018,09,30,13,13,49.00
2018,09,30,13,14,50.60
2018,09,30,13,15,58.30
2018,09,30,13,16,71.90
2018,09,30,13,17,86.20
2018,09,30,13,18,94.80
2018,09,30,13,19,97.00
2018,09,30,13,20,94.20
2018,09,30,13,21,88.90
2018,09,30,13,22,86.30
2018,09,30,13,23,89.20
2018,09,30,13,24,97.80
2018,09,30,13,25,105.30
2018,09,30,13,26,105.80
2018,09,30,13,27,102.90
2018,09,30,13,28,98.80
2018,09,30,13,29,94.90
2018,09,30,13,30,90.40
2018,09,30,13,31,86.30
2018,09,30,13,32,81.10
2018,09,30,13,33,77.30
2018,09,30,13,34,73.30
2018,09,30,13,35,66.40
2018,09,30,13,36,56.00
2018,09,30,13,37,46.40
2018,09,30,13,38,46.20
2018,09,30,13,39,55.90
2018,09,30,13,40,70.20
2018,09,30,13,41,85.70
2018,09,30,13,42,94.10
2018,09,30,13,43,90.40
2018,09,30,13,44,78.70
2018,09,30,13,45,67.20
2018,09,30,13,46,59.20
2018,09,30,13,47,54.90
2018,09,30,13,48,51.90
2018,09,30,13,49,46.90
2018,09,30,13,50,39.20
2018,09,30,13,51,34.40
2018,09,30,13,52,30.70
2018,09,30,13,53,27.10
2018,09,30,13,54,27.20
2018,09,30,13,55,29.40
2018,09,30,13,56,31.60
2018,09,30,13,57,33.40
2018,09,30,13,58,42.30
2018,09,30,13,59,57.20
2018,09,30,14,00,70.30
2018,09,30,14,01,68.10
2018,09,30,14,02,62.90
2018,09,30,14,03,55.40
2018,09,30,14,04,51.10
2018,09,30,14,05,51.40
2018,09,30,14,06,54.70
2018,09,30,14,07,58.00
2018,09,30,14,08,54.10
2018,09,30,14,09,49.60
2018,09,30,14,10,49.00
2018,09,30,14,11,49.00
2018,09,30,14,12,49.00
2018,09,30,14,13,49.00
2018,09,30,14,14,49.90
2018,09,30,14,15,52.70
2018,09,30,14,16,54.00
2018,09,30,14,17,54.00
2018,09,30,14,18,54.00
2018,09,30,14,19,54.40
2018,09,30,14,20,56.00
2018,09,30,14,21,56.00
2018,09,30,14,22,56.00
2018,09,30,14,23,57.40
2018,09,30,14,24,61.30
2018,09,30,14,25,63.30
2018,09,30,14,26,69.20
2018,09,30,14,27,70.60
2018,09,30,14,28,71.10
2018,09,30,14,29,69.40
2018,09,30,14,30,66.20
2018,09,30,14,31,62.50
2018,09,30,14,32,60.10
2018,09,30,14,33,60.50
2018,09,30,14,34,63.00
2018,09,30,14,35,63.90
2018,09,30,14,36,65.00
2018,09,30,14,37,65.00
2018,09,30,14,38,65.00
2018,09,30,14,39,63.10
2018,09,30,14,40,61.60
2018,09,30,14,41,58.60
2018,09,30,14,42,55.10
2018,09,30,14,43,53.40
2018,09,30,14,44,53.70
2018,09,30,14,45,54.00
2018,09,30,14,46,54.10
2018,09,30,14,47,56.00
2018,09,30,14,48,56.00
2018,09,30,14,49,56.00
2018,09,30,14,50,56.00
2018,09,30,14,51,57.40
2018,09,30,14,52,58.00
2018,09,30,14,53,61.90
2018,09,30,14,54,63.40
2018,09,30,14,55,65.60
2018,09,30,14,56,68.30
2018,09,30,14,57,73.50
2018,09,30,14,58,76.00
2018,09,30,14,59,84.20
2018,09,30,15,00,88.00
2018,09,30,15,01,90.20
2018,09,30,15,02,92.90
2018,09,30,15,03,99.10
2018,09,30,15,04,103.70
2018,09,30,15,05,106.40
2018,09,30,15,06,105.40
2018,09,30,15,07,101.90
2018,09,30,15,08,97.80
2018,09,30,15,09,97.00
2018,09,30,15,10,96.10
2018,09,30,15,11,92.70
2018,09,30,15,12,87.60
2018,09,30,15,13,83.50
2018,09,30,15,14,77.00
2018,09,30,15,15,73.60
2018,09,30,15,16,72.00
2018,09,30,15,17,71.10
2018,09,30,15,18,67.10
2018,09,30,15,19,63.60
2018,09,30,15,20,64.70
2018,09,30,15,21,69.10
2018,09,30,15,22,72.70
2018,09,30,15,23,76.90
2018,09,30,15,24,79.90
2018,09,30,15,25,78.70
2018,09,30,15,26,74.90
2018,09,30,15,27,70.70
2018,09,30,15,28,70.10
2018,09,30,15,29,72.70
2018,09,30,15,30,76.00
2018,09,30,15,31,75.10
2018,09,30,15,32,71.80
2018,09,30,15,33,69.30
2018,09,30,15,34,73.10
2018,09,30,15,35,78.70
2018,09,30,15,36,79.00
2018,09,30,15,37,78.40
2018,09,30,15,38,74.80
2018,09,30,15,39,72.00
2018,09,30,15,40,74.80
2018,09,30,15,41,81.80
2018,09,30,15,42,85.90
2018,09,30,15,43,86.00
2018,09,30,15,44,85.10
2018,09,30,15,45,79.90
2018,09,30,15,46,72.00
2018,09,30,15,47,69.00
2018,09,30,15,48,71.50
2018,09,30,15,49,76.10
2018,09,30,15,50,79.00
2018,09,30,15,51,79.00
2018,09,30,15,52,78.10
2018,09,30,15,53,76.40
2018,09,30,15,54,76.70
2018,09,30,15,55,77.00
2018,09,30,15,56,79.10
2018,09,30,15,57,81.40
2018,09,30,15,58,83.00
2018,09,30,15,59,82.10
2018,09,30,16,00,79.80
2018,09,30,16,01,76.90
2018,09,30,16,02,72.80
2018,09,30,16,03,72.00
2018,09,30,16,04,72.40
2018,09,30,16,05,74.00
2018,09,30,16,06,74.00
2018,09,30,16,07,74.00
2018,09,30,16,08,71.10
2018,09,30,16,09,69.20
2018,09,30,16,10,69.10
2018,09,30,16,11,70.40
2018,09,30,16,12,72.00
2018,09,30,16,13,73.80
2018,09,30,16,14,77.70
2018,09,30,16,15,81.80
2018,09,30,16,16,89.60
2018,09,30,16,17,103.90
2018,09,30,16,18,110.40
2018,09,30,16,19,116.70
2018,09,30,16,20,117.10
2018,09,30,16,21,114.90
2018,09,30,16,22,113.30
2018,09,30,16,23,109.70
2018,09,30,16,24,107.10
2018,09,30,16,25,105.40
2018,09,30,16,26,96.40
2018,09,30,16,27,92.10
2018,09,30,16,28,90.40
2018,09,30,16,29,90.00
2018,09,30,16,30,90.80
2018,09,30,16,31,91.00
2018,09,30,16,32,91.70
2018,09,30,16,33,97.80
2018,09,30,16,34,104.00
2018,09,30,16,35,106.90
2018,09,30,16,36,106.10
2018,09,30,16,37,105.00
2018,09,30,16,38,101.80
2018,09,30,16,39,97.00
2018,09,30,16,40,92.40
2018,09,30,16,41,90.60
2018,09,30,16,42,87.70
2018,09,30,16,43,82.60
2018,09,30,16,44,73.60
2018,09,30,16,45,63.00
2018,09,30,16,46,57.20
2018,09,30,16,47,53.70
2018,09,30,16,48,53.00
2018,09,30,16,49,53.60
2018,09,30,16,50,56.80
2018,09,30,16,51,61.30
2018,09,30,16,52,64.90
2018,09,30,16,53,67.00
2018,09,30,16,54,65.70
2018,09,30,16,55,62.60
2018,09,30,16,56,60.80
2018,09,30,16,57,58.60
2018,09,30,16,58,56.30
2018,09,30,16,59,54.10
2018,09,30,17,00,54.00
2018,09,30,17,01,53.70
2018,09,30,17,02,53.00
2018,09,30,17,03,53.00
2018,09,30,17,04,53.00
2018,09,30,17,05,53.80
2018,09,30,17,06,54.10
2018,09,30,17,07,56.00
2018,09,30,17,08,55.30
2018,09,30,17,09,54.00
2018,09,30,17,10,54.00
2018,09,30,17,11,51.90
2018,09,30,17,12,47.70
2018,09,30,17,13,46.70
2018,09,30,17,14,41.60
2018,09,30,17,15,40.00
2018,09,30,17,16,39.60
2018,09,30,17,17,37.80
2018,09,30,17,18,35.60
2018,09,30,17,19,32.50
2018,09,30,17,20,30.00
2018,09,30,17,21,28.00
2018,09,30,17,22,28.00
2018,09,30,17,23,28.90
2018,09,30,17,24,31.80
2018,09,30,17,25,34.40
2018,09,30,17,26,38.30
2018,09,30,17,27,43.90
2018,09,30,17,28,47.40
2018,09,30,17,29,49.00
2018,09,30,17,30,49.00
2018,09,30,17,31,49.00
2018,09,30,17,32,46.90
2018,09,30,17,33,42.70
2018,09,30,17,34,40.10
2018,09,30,17,35,40.00
2018,09,30,17,36,40.00
2018,09,30,17,37,40.00
2018,09,30,17,38,40.00
2018,09,30,17,39,40.00
2018,09,30,17,40,40.00